Location: Unspecified
(50.7693°N, 0.0000°E)
Time: 07:00:44
(UTC+00:00)

Transit 2A - Pass Details

Date: 23 August 2020
Orbit: 591 x 967 km, 66.7° (Epoch: 20 September)

Event Time Altitude Azimuth Distance (km) Brightness Sun altitude
Rises 02:03:47 0° 320° (NW) 3,662 9.7 -22.5°
Reaches altitude 10° 02:06:28 10° 316° (NW) 2,698 9.0 -22.3°
Maximum altitude 02:12:33 50° 243° (WSW) 1,171 6.5 -21.8°
Enters shadow 02:13:45 43° 209° (SSW) 1,255 6.6 -21.7°
